User: anonymous   Login
Location: Glencliff
(36.1226°N, 86.7183°W)
Time: 10:04:15
(UTC+00:00)
Language:

Unknown - Orbit

View from above orbital plane
View from above orbital plane
View from above satellite
View from above satellite

Ground track
Ground track

The orbit data is extracted from the following two-line orbital elements,

1 44281U 19029AY  19287.40269126  .00001287  00000-0  10779-3 0  9992
2 44281  53.0012 248.5233 0001450  87.5882 272.5272 15.05479437 21697
Epoch (UTC): 14 October 2019 09:39:52
Eccentricity: 0.0001450
inclination: 53.0012°
perigee height: 549 km
apogee height: 551 km
right ascension of ascending node: 248.5233°
argument of perigee: 87.5882°
revolutions per day: 15.05479437
mean anomaly at epoch: 272.5272°
orbit number at epoch: 2169

The dashed part of the orbit path shows where the satellite is in the earth's shadow,  

DLR